Terminal Aerodrome Forecast
Issued by NWS Lubbock, TX

Home | Current Version | Previous Version | Text Only | Print | Product List | Glossary On
Versions: 1 2 3 4 5 6 7 8 9 10 11 12 13 14 15 16 17 18 19 20 21 22
000
FTUS44 KLUB 050320 AAC
TAFLBB
TAF AMD
KLBB 050320Z 0503/0524 16011KT 6SM -RA BKN040 WS003/08040KT
     FM050500 14015G20KT 3SM -TSRA SCT010 BKN020CB=

USA.gov is the U.S. government's official web portal to all federal, state and local government web resources and services.